www.pogodaiklimat.ru

Погода и климат >> Архив погоды >> Россия >> Калмыкия >> Ики-Бурул


ПОГОДА в Ики-Буруле

  • Прогноз погоды в Ики-Буруле
  • Монитор погоды в Ики-Буруле

АРХИВ ПОГОДЫ в Ики-Буруле

Время (UTC), дата Ветер
(напр.,м/с)
 
Видим.   Явления Облачность Т
(С)
Тd
(С)
f
(%)
Тe
(С)
Тes
(С)
Комфортность P
(гПа)
Po
(гПа)
Тmin
(С)
Tmax
(С)
R
(мм)
R24
(мм)
S
(см)
18 15.09 С 4 20 км ясно +20.2 +9.0 48 +22 +22 комфорт 1018.7 1005.4
21 15.09 СВ 4 н/о н/о +16.1 +6.1 51 +15 +15 1019.8 1006.3
00 16.09 СВ 1 20 км ясно +13.3 +5.1 58 +14 +14 1020.3 1006.7
03 16.09 штиль 0 20 км ясно +9.5 +4.7 72 +9 +9 1020.5 1006.7 +9.3
06 16.09 В 3 20 км ясно +19.9 +4.1 35 +21 +25 комфорт 1019.1 1005.8
09 16.09 СВ 1 20 км ясно +23.6 +1.4 23 +23 +36 комфорт 1017.0 1003.9
12 16.09 Ю 2 20 км ясно +26.7 +3.7 23 +25 +31 комфорт 1014.0 1001.1
15 16.09 ЮВ 2 20 км ясно +23.8 +3.8 27 +23 +23 комфорт 1012.8 999.8 +26.9
18 16.09 ЮВ 2 20 км ясно +20.0 +3.6 34 +21 +21 комфорт 1012.7 999.5
21 16.09 ЮВ 3 20 км ясно +18.0 +7.3 50 +18 +18 1012.1 998.8
00 17.09 Ю 1 20 км ясно +18.0 +7.3 50 +19 +19 1011.6 998.4
03 17.09 З 1 20 км 4/0
[Ac cast]
+14.4 +6.3 58 +15 +15 1012.1 998.7 +14.4
06 17.09 З 3 20 км 9/0
[Ac cast Ci sp]
+21.8 +2.7 28 +22 +25 комфорт 1011.9 998.8 +14.1
09 17.09 ЮЗ 4 20 км 9/0
[Ac cast Ci sp]
+24.6 +2.8 24 +24 +27 комфорт 1010.7 997.7
12 17.09 ЮЗ 5 20 км 9/0
[Ac As Ci fib]
+24.6 +3.3 25 +24 +25 комфорт 1009.9 996.9
15 17.09 Ю 5
{11}
20 км 9/0
[Ac As Ci]
+21.4 +11.1 52 +23 +23 комфорт 1009.3 996.2 +25.5
18 17.09 Ю 3 20 км ясно +17.6 +11.5 67 +18 +18 1010.0 996.8
21 17.09 ЮЗ 3 20 км 9/0
[Ac As]
+17.7 +10.6 63 +18 +18 1009.7 996.5
00 18.09 штиль 0 20 км 9/0
[Ac trans Ci]
+14.9 +7.2 60 +15 +15 1011.2 997.8
03 18.09 ЮЗ 2 20 км 9/0
[Ac As]
+16.5 +9.4 63 +17 +17 1011.9 998.6 +14.8
06 18.09 З 6-10
{11}
20 км 9/0
[Ac As]
+20.8 +11.4 55 +23 +23 комфорт 1012.5 999.4
09 18.09 З 8-14
{14}
20 км 6/0
[Ac cast]
+24.6 +10.4 41 +26 +27 жарко 1011.6 998.6
12 18.09 З 6-10
{14}
20 км 6/3 1000 м
[Cu hum Ac cast]
+27.4 +10.5 35 +28 +29 жарко 1010.2 997.4
15 18.09 ЮЗ 3
{11}
20 км 4/0
[Ac cast]
+27.0 +8.3 31 +27 +27 жарко 1008.7 995.9 +28.3
18 18.09 ЮЗ 5 20 км 9/0
[Ac As]
+25.7 +6.3 29 +25 +25 комфорт 1009.3 996.4
21 18.09 З 6
{16}
20 км 9/0
[Ac As]
+18.7 +10.0 57 +19 +19 1013.0 999.8
00 19.09 З 2 20 км ясно +14.7 +8.8 68 +14 +14 1014.6 1001.2
03 19.09 З 2 20 км 3/0
[Ac trans]
+12.3 +6.4 67 +12 +12 1017.2 1003.6 +12.3
06 19.09 З 5 20 км 9/4 1000 м
[Cb cap Ac As]
+14.6 +3.3 47 +13 +14 1019.0 1005.5
09 19.09 З 5
{10}
20 км 9/0
[Ac As]
+15.7 +0.9 37 +15 +17 1019.8 1006.4
12 19.09 ЮЗ 4 20 км 8/0
[Ac As Cc]
+19.1 +1.8 31 +19 +21 1019.1 1005.8
15 19.09 ЮЗ 2 20 км 6/0
[Ac As]
+17.5 +1.6 34 +18 +18 1019.8 1006.4 +19.8
18 19.09 СЗ 1 20 км 8/0
[Ac As]
+14.8 +2.3 43 +16 +16 1020.6 1007.0
21 19.09 СВ 2 20 км 10/4 1000 м
[Cb cap Ac und]
+15.4 0.0 35 +15 +15 1019.6 1006.1
00 20.09 В 1 10 км слаб. ливневой дождь 10/8 1000 м
[Cb cap Ac und]
+13.6 +4.3 53 +14 +14 1020.4 1006.8
03 20.09 СВ 2 20 км {ливн. осадки} 9/4 1000 м
[Cb cap Ac As]
+13.0 +5.0 58 +12 +12 1019.9 1006.3 +13.0 0.0
06 20.09 В 2 20 км {ливн. осадки} 9/4 1000 м
[Cb cap Ac As]
+15.2 +4.7 49 +15 +16 1019.3 1005.8 +12.8
09 20.09 СВ 3 20 км {ливн. осадки} 9/0
[Ac As Ci fib]
+18.4 +4.1 39 +19 +22 1017.3 1004.0
12 20.09 В 5 20 км {ливн. осадки} 8/0
[Ac cast Ci fib]
+20.1 +3.1 32 +20 +22 1014.8 1001.6
15 20.09 СВ 4
{10}
20 км 9/0
[Ac trans Ci sp]
+16.6 +3.8 42 +16 +16 1013.4 1000.0 +20.3 0.0
18 20.09 СВ 4
{11}
20 км 10/0
[Ac und]
+14.6 +3.4 47 +14 +14 1013.6 1000.1
21 20.09 С 5-11
{11}
20 км 10/0
[Ac und]
+11.9 +5.5 65 +10 +10 1011.7 998.1
00 21.09 С 5
{14}
20 км в посл. час ливневой дождь 10/10 600 м
[Cb cap]
+9.0 +6.2 83 +6 +6 1013.0 999.3
03 21.09 С 2 20 км в посл. час ливневой дождь 10/10 300 м
[Cb cap]
+8.7 +7.8 94 +7 +7 1014.1 1000.4 +8.2 2
06 21.09 З 3 20 км {ливн. осадки} 10/10 300 м
[Cb cap]
+9.4 +8.1 92 +7 +7 1015.5 1001.8
09 21.09 СЗ 5 20 км 10/10 600 м
[Cb cap]
+10.7 +6.9 77 +8 +8 1015.6 1001.9
12 21.09 З 3 20 км 9/9 1000 м
[Cu med, cong]
+13.9 +4.8 54 +13 +13 1015.8 1002.3
15 21.09 З 3 20 км 5/3 600 м
[Cu med, cong Ac cast]
+12.5 +5.2 61 +11 +11 1016.1 1002.5 +15.1 0.1
18 21.09 ЮЗ 2
{12}
20 км {ливн. осадки} ясно +6.7 +5.7 93 +4 +4 1017.6 1003.7
21 21.09 З 1 20 км {ливн. осадки} ясно +5.6 +4.7 94 +4 +4 1018.1 1004.1
00 22.09 З 2 20 км {ливн. осадки} ясно +5.1 +3.9 92 +2 +2 1018.8 1004.9
03 22.09 З 3 20 км ясно +5.1 +4.1 93 +2 +2 1020.2 1006.2 +4.9 1
06 22.09 З 5-11
{11}
20 км 6/0
[Ac cast Ci fib]
+10.5 +5.9 73 +8 +9 1020.8 1007.1
09 22.09 З 9-14
{14}
20 км 8/5 1000 м
[Cu med, cong Ci fib]
+14.7 +2.3 43 +13 +13 1018.6 1005.1
12 22.09 З 9-15
{16}
20 км 8/3 1000 м
[Cu hum Ci fib]
+17.3 +2.0 36 +16 +16 1016.4 1003.1
15 22.09 З 6-12
{18}
20 км 8/0
[Ac trans]
+15.9 +3.5 43 +15 +15 1015.8 1002.4 +17.5

 

Местоположение метеостанции Ики-Бурул (Калмыкия, Россия): широта 45.80 долгота 44.63 высота над уровнем моря 113 м.

В архиве по умолчанию представлена погода в Ики-Буруле за последнюю неделю. Архивные данные за месяц целиком и за предыдущие месяцы, начиная с января 2011 года, Вы можете получить, выбрав интересующий диапазон дат из раскрывающегося списка и нажав кнопку "Ввод!".


*Определитесь, кто Вы:
робот инопланетянин человек

Внимание! Время в таблицах - всемирное. Для получения местного времени необходимо прибавить поправку, которая равна 3 ч.

Смотрите также архив погоды в соседних городах и на ближайших метеорологических станциях:

Погода в Арзгире (Ставропольский край, Россия) (56 км)
Погода в Элисте (Калмыкия, Россия) (67 км)
Погода в Яшкуле (Калмыкия, Россия) (70 км)
Погода в Дивном (Ставропольский край, Россия) (100 км)
Погода в Ремонтном (Ростовская область, Россия) (113 км)
Погода в Комсомольском (Калмыкия, Россия) (120 км)
Погода в Буденновске (Ставропольский край, Россия) (120 км)
Погода в Благодарном (Ставропольский край, Россия) (121 км)
Погода в Утте (Калмыкия, Россия) (125 км)
Погода в Светлограде (Ставропольский край, Россия) (147 км)

Пояснения к столбцам:

Ветер - указаны скорость ветра в м/с - средняя за 10 мин, порывы в срок и между сроками (в фигурных скобках) и направление, откуда дует ветер: С - северный, СВ - северо-восточный, В - восточный, ЮВ - юго-восточный, Ю - южный, ЮЗ - юго-западный, З - западный, СЗ - северо-западный.
Видимость - горизонтальная дальность видимости в метрах или километрах. При видимости от 1 до 10 км при отсутствии осадков обычно наблюдается дымка, при ухудшении видимости до 1 км и менее - туман. В сухую погоду видимость может ухудшаться дымом, пылью или мглою.
Явления - указаны атмосферные явления, наблюдавшиеся в срок или в последний час перед сроком; фигурными скобками обозначены явления, наблюдавшиеся между сроками (за 1-3 часа до срока); квадратными скобками обозначены град или гололедные отложения с указанием их диаметра в мм.
Облачность - указаны через наклонную черту общая и нижняя облачность в баллах и высота нижней границы облаков в метрах; квадратными скобками обозначены формы облаков: Ci - перистые, Cs - перисто-слоистые, Cc - перисто-кучевые, Ac - высококучевые, As - высокослоистые, Sc - слоисто-кучевые, Ns - слоисто-дождевые, Cu - кучевые, Cb - кучево-дождевые. Подробнее классификацию облаков см. в Атласе облаков (PDF).
T - Температура воздуха - температура, измеренная на высоте 2 м над землей.
Td - Температура точки росы - температура, при понижении до которой содержащийся в воздухе водяной пар достигнет насыщения.
f - Относительная влажность воздуха - влажноcть воздуха, измеренная на высоте 2 м над землей.
Te - Эффективная температура - температура, которую ощущает одетый по сезону человек в тени. Характеристика душности погоды. При расчете учитывается влияние влажности воздуха и скорости ветра на теплоощущения человека.
Tes - Эффективная температура на солнце - температура, которую ощущает человек, с поправкой на солнечный нагрев. Характеристика знойности погоды. Зависит от высоты солнца над горизонтом, облачности и скорости ветра. Ночью, в пасмурную погоду, а также при ветре 12 м/с и более поправка равна нулю.
P - Атмосферное давление - приведенное к уровню моря атмосферное давление.
Po - Атмосферное давление - измеренное на уровне метеостанции атмосферное давление.
Tmin - Минимальная температура - минимум температуры воздуха на высоте 2 м над землей.
Tmax - Максимальная температура - максимум температуры воздуха на высоте 2 м над землей.
R - Количество осадков - Количество выпавших осадков за период времени, мм. При наведении курсора мыши на число - период времени, за который выпало указанное количество осадков.
R24 - Количество осадков - Количество выпавших осадков за 24 часа, мм.
S - Снежный покров - Высота снежного покрова, см. При наведении курсора мыши на число - состояние снежного покрова и степень покрытия местности в баллах.